Theta_e
337 338 337 339 338 339 339 340 341 340 341 340 337 339 340 339 342 341 342 343 345 344 342 334 329 334 339 340 338 339 342 343 343 341 341 345 340 336 336 335 343 343 340
337 337 337 337 338 337 338 340 341 342 342 342 337 339 340 340 342 338 339 342 332 329 330 334 342 337 337 342 341 340 339 341 340 340 337 337 341 340 340 336 339 341 339
336 337 337 337 337 338 337 338 340 343 343 340 339 339 340 341 338 338 338 331 342 340 342 342 338 342 343 342 340 339 339 336 333 335 340 346 340 335 338 339 339 340 338
336 337 339 339 337 338 337 338 340 343 340 339 335 335 340 337 334 334 334 344 344 344 344 344 345 343 341 340 340 339 336 334 331 332 340 344 344 342 340 335 334 335 334
340 338 340 339 338 337 338 338 340 342 341 336 339 337 336 338 340 338 342 343 342 343 342 344 344 341 341 338 336 333 329 327 330 330 330 330 343 342 342 329 334 334 336
341 339 339 336 337 338 338 337 340 338 338 337 339 339 342 342 343 343 340 341 342 341 341 341 342 340 336 334 333 328 324 324 325 325 325 327 331 328 328 329 338 340 338
341 340 337 332 334 338 338 338 337 339 338 336 336 339 340 342 338 335 336 335 338 340 342 342 340 337 334 334 328 323 318 318 320 321 322 322 322 325 331 330 330 330 329
343 341 332 330 333 336 338 338 338 337 336 337 338 339 337 333 333 338 337 336 336 337 342 340 341 341 338 335 329 322 316 315 314 314 314 320 326 332 335 337 336 332 332
343 339 331 328 332 331 339 338 339 341 343 341 337 335 335 340 340 335 331 328 327 338 340 342 342 342 341 339 334 324 320 319 317 314 313 314 312 312 311 312 311 312 314
337 334 330 330 333 335 337 339 338 341 337 337 339 340 344 344 337 332 332 328 337 340 342 342 343 343 342 341 337 332 326 324 323 322 320 318 318 317 315 314 313 311 310
342 337 333 337 336 338 338 338 340 340 339 337 338 340 341 338 336 335 333 337 340 341 342 342 343 344 344 343 341 340 339 333 327 327 326 325 325 324 323 322 321 320 319
343 337 337 337 338 336 334 338 340 341 341 339 340 342 338 336 335 335 336 340 341 341 342 342 344 345 344 343 343 343 341 343 340 331 329 329 329 329 328 328 327 327 326
340 342 340 337 335 337 340 338 339 340 335 334 335 339 337 336 334 333 338 340 341 342 342 344 344 346 344 343 343 343 344 345 345 344 340 334 333 332 331 330 330 331 331
340 338 340 337 334 334 336 338 337 333 336 336 336 335 333 336 334 331 338 341 342 341 345 344 346 345 344 342 344 343 343 344 344 345 344 343 341 341 340 338 334 332 332
335 335 337 339 335 333 333 338 338 337 334 334 334 334 332 337 333 332 337 340 343 345 344 344 345 344 343 345 344 344 343 343 343 344 344 345 345 344 344 344 342 340 337
334 334 335 334 332 332 334 337 337 337 335 334 335 335 333 336 334 338 342 345 345 343 342 343 344 343 343 344 344 344 345 345 345 345 345 346 346 346 345 345 344 343 342
334 334 334 333 333 334 334 333 333 334 334 333 335 336 335 336 336 344 345 343 342 342 341 341 344 345 343 344 345 345 345 345 345 346 346 346 346 346 346 345 345 344 343
332 333 334 334 334 334 333 333 333 333 332 332 337 338 336 336 337 344 342 342 341 341 340 343 345 346 344 344 345 345 344 345 345 345 346 346 346 346 346 346 345 344 342
332 334 338 337 334 335 336 340 341 341 340 335 338 339 337 334 338 343 342 342 339 341 342 344 346 345 344 345 346 345 345 345 345 345 345 345 345 345 345 344 343 342 341
340 340 343 344 341 341 344 343 344 345 344 342 338 340 338 335 342 342 341 342 340 341 342 344 348 345 346 345 345 345 344 344 344 344 343 341 338 339 339 339 340 341 341
343 343 343 344 343 341 342 343 343 344 345 344 340 340 338 335 340 340 337 339 340 341 342 346 348 345 344 344 345 345 347 345 343 341 339 339 340 340 341 341 342 344 345
342 343 343 343 344 342 342 341 343 345 345 344 343 342 337 334 336 337 337 340 340 340 344 346 348 347 345 343 346 345 350 349 344 343 340 339 339 340 340 341 342 342 342
343 342 343 343 344 344 344 343 344 345 343 344 343 341 336 338 341 344 343 340 340 342 345 345 346 347 348 344 345 348 347 346 341 341 340 341 340 339 339 338 337 339 342
342 343 342 343 344 345 344 344 345 346 346 344 344 341 337 339 344 344 342 339 340 343 343 345 344 347 344 342 344 348 346 344 343 343 340 337 339 337 336 335 331 333 337
342 342 342 342 343 346 344 344 344 346 347 343 342 343 342 338 340 341 341 341 341 343 342 345 346 348 343 339 341 346 347 346 345 344 344 340 331 330 332 331 334 343 346
342 342 342 342 343 344 345 343 344 343 346 345 344 341 340 341 340 340 339 339 342 344 346 345 346 348 346 345 344 343 343 346 347 346 345 343 336 330 328 331 334 341 345
Wind_Speed
15 14 13 14 14 17 15 14 13 13 14 18 20 19 17 18 19 19 19 19 19 18 19 18 19 20 19 19 17 17 17 15 14 14 15 14 13 13 12 12 16 11 11
18 14 13 12 14 14 15 13 12 13 14 18 21 18 17 18 20 16 18 16 17 17 19 20 19 19 18 17 15 15 14 13 13 12 12 12 12 11 11 10 11 10 10
17 15 13 12 12 14 15 16 15 15 18 26 20 16 20 17 16 16 15 17 18 19 19 19 19 18 16 15 15 15 14 13 12 12 12 11 10 10 9 9 8 8 9
16 15 13 12 12 13 14 15 17 21 27 23 19 18 22 16 14 15 17 16 17 17 17 16 15 15 14 15 14 13 13 13 12 11 11 10 9 9 9 8 7 7 7
16 14 12 11 12 12 13 16 19 25 25 22 23 26 16 15 15 15 14 13 16 17 16 16 17 16 16 16 15 15 13 13 12 10 9 9 9 7 6 7 6 6 7
17 15 13 12 12 12 13 16 20 22 22 21 18 18 15 14 14 13 13 15 15 15 14 16 17 16 16 17 16 17 14 12 10 10 9 8 7 5 4 5 6 7 6
18 16 14 12 12 13 13 15 16 18 18 16 14 14 12 12 12 11 11 12 12 12 14 16 16 16 19 18 18 17 17 15 13 12 11 9 7 7 7 7 6 5 4
17 17 14 12 11 12 15 15 15 14 14 13 14 12 11 11 10 10 9 9 10 12 15 15 15 15 17 19 19 19 18 16 15 14 12 11 11 10 9 8 7 6 5
15 16 14 12 11 12 14 14 15 15 13 12 13 12 11 11 10 9 9 9 11 14 15 15 14 15 16 18 19 19 18 17 18 16 15 14 14 12 10 9 8 6 5
15 14 13 12 12 14 13 14 13 12 10 11 12 11 10 11 10 10 11 12 15 16 14 14 14 16 16 17 19 19 18 18 19 18 18 17 16 15 15 14 13 11 10
15 14 14 13 15 14 14 14 13 12 11 11 11 10 10 10 11 11 12 15 17 15 13 11 13 14 14 16 16 16 18 19 19 18 17 16 16 16 15 14 13 13 13
15 16 15 15 16 15 16 15 13 12 12 13 11 10 10 10 11 12 13 14 15 12 9 9 11 12 14 14 13 13 14 16 18 16 15 15 15 15 14 14 14 13 13
19 15 17 17 16 16 14 15 13 12 12 13 12 11 11 12 11 12 14 14 12 9 7 8 10 12 13 13 12 11 11 13 14 14 14 14 14 14 13 13 13 13 13
20 18 18 18 17 16 15 14 13 12 13 13 12 11 12 13 12 13 14 12 10 7 5 6 9 11 11 11 11 8 8 9 10 11 10 11 11 11 12 12 12 12 12
20 20 19 19 18 15 15 14 13 13 13 13 12 12 13 14 14 14 14 12 9 5 4 5 7 8 9 10 9 8 8 7 8 9 8 7 8 9 9 9 9 9 10
20 20 20 20 18 17 16 15 13 13 13 12 12 12 14 15 16 15 14 10 7 5 4 2 4 6 6 7 8 8 7 6 6 7 6 6 6 7 7 8 8 8 7
20 20 20 20 19 19 17 16 15 15 15 14 13 13 15 17 17 16 14 10 7 6 4 1 3 5 4 6 9 7 7 7 5 4 4 5 6 6 6 6 7 7 7
21 21 20 20 20 19 18 16 15 16 16 17 14 14 15 17 19 17 13 9 9 6 6 4 3 4 5 7 9 9 6 4 6 6 5 6 7 8 8 7 7 6 6
19 21 20 19 19 18 17 16 15 15 17 17 17 17 16 18 22 19 13 10 9 6 5 3 4 3 4 6 9 9 5 5 7 7 8 8 8 8 7 6 6 5 5
21 20 19 18 18 19 18 18 17 15 15 19 20 19 18 19 21 18 14 10 9 5 5 4 4 4 6 8 10 6 6 6 6 7 7 6 5 5 5 5 5 5 4
24 24 21 21 20 20 22 21 21 18 15 17 20 21 20 21 22 19 15 11 9 6 5 4 4 5 8 9 11 6 5 5 6 7 5 5 6 6 6 6 6 6 5
27 27 25 23 22 21 20 22 20 18 16 15 19 21 22 22 23 20 16 14 11 8 6 5 5 6 9 9 11 9 4 4 5 6 5 6 6 8 7 7 8 8 7
31 30 29 26 24 23 21 21 20 18 16 17 17 22 24 24 23 20 17 15 11 10 7 6 7 6 8 9 8 7 4 4 12 4 6 7 8 8 9 12 13 12 11
34 32 30 29 27 26 25 24 23 21 20 20 19 20 24 26 25 22 18 15 13 11 10 9 9 8 9 7 7 7 7 8 5 7 8 11 7 12 13 14 15 14 13
36 35 34 32 31 29 28 29 25 24 21 19 20 21 22 25 26 23 20 16 15 14 16 12 10 10 9 8 8 8 9 11 11 11 14 13 17 14 11 12 10 8 8
37 38 38 36 34 32 30 31 32 28 25 23 21 21 23 25 25 25 22 20 17 16 16 15 13 11 10 10 10 11 12 10 11 13 14 17 22 22 18 10 9 12 11
Wind_Direction
151 133 122 110 108 112 119 125 133 139 134 139 138 124 114 109 104 103 103 101 102 107 108 101 97 92 88 86 82 78 76 73 76 75 79 77 73 75 79 83 78 83 83
145 140 132 121 113 107 106 117 125 137 137 138 138 126 115 112 108 98 104 100 106 107 103 101 94 90 86 86 75 72 74 75 72 71 72 73 74 72 80 81 85 86 83
152 143 137 133 120 114 98 105 116 119 132 134 127 125 124 111 104 105 105 106 98 101 98 96 95 90 81 75 70 66 62 64 70 68 72 75 70 71 72 77 77 77 76
153 145 139 139 135 120 106 96 107 111 124 121 117 121 118 112 107 104 106 108 106 99 91 92 91 84 74 65 57 57 58 60 63 67 70 74 68 68 67 65 72 75 71
154 145 142 143 141 133 122 102 106 116 123 119 111 117 110 116 109 107 109 110 109 99 90 93 89 81 70 63 58 54 49 50 55 59 64 75 75 65 59 52 68 77 79
156 148 143 141 141 142 133 121 118 117 122 121 112 117 114 110 113 117 117 113 106 98 95 90 84 73 66 60 55 49 48 53 57 57 60 59 63 56 45 62 79 79 67
152 148 142 142 141 144 145 137 135 131 129 126 129 126 121 116 120 119 115 114 105 100 93 87 81 71 63 55 51 49 51 57 59 59 59 64 67 72 70 73 73 65 68
152 153 154 152 147 149 154 151 145 144 137 135 131 135 134 127 125 120 117 110 110 101 98 91 76 65 55 52 50 50 56 61 64 68 70 76 82 78 77 79 80 73 76
156 159 161 159 158 160 159 164 157 150 138 132 135 136 129 125 119 120 114 107 109 117 105 88 74 61 54 50 52 53 58 63 67 69 71 70 70 67 66 64 62 63 68
162 164 167 168 167 160 162 168 174 166 161 148 143 143 134 131 123 118 111 111 120 119 105 89 74 60 54 53 55 57 59 63 65 67 68 67 67 66 66 65 64 65 64
171 173 173 171 169 168 167 171 172 170 165 158 157 162 147 139 128 125 119 124 126 120 105 86 66 53 46 49 56 57 61 61 62 64 68 70 69 68 67 67 67 68 66
180 178 177 177 176 173 174 173 174 169 174 172 173 168 157 151 144 138 134 132 130 122 103 75 53 38 39 48 56 58 54 63 62 62 67 71 72 71 70 68 66 68 67
181 182 181 178 180 178 176 176 179 177 174 178 183 175 171 160 157 148 143 140 132 126 101 67 48 39 41 41 60 62 67 65 63 59 60 65 70 70 67 67 67 66 67
184 184 184 182 185 188 187 182 177 177 178 176 184 177 172 166 161 156 149 145 140 131 96 68 50 45 40 44 54 56 67 70 67 60 55 58 62 65 65 63 62 61 61
187 186 186 189 190 189 189 186 178 179 184 185 182 178 168 169 164 157 151 153 149 142 115 73 45 33 37 39 43 42 60 72 75 72 64 57 56 54 53 52 52 53 53
190 189 191 191 192 190 191 189 188 188 194 194 185 178 175 173 166 159 160 164 160 161 151 86 23 12 14 18 29 29 25 42 59 66 58 46 43 44 39 35 35 33 33
194 190 195 194 197 196 195 198 199 203 204 200 193 185 183 178 174 170 174 173 175 185 192 229 345 341 2 11 355 11 6 5 5 11 15 8 7 17 16 18 14 13 14
196 193 193 196 198 201 198 202 203 207 210 205 198 200 190 188 185 180 180 185 188 190 206 229 309 339 353 4 357 348 337 347 347 342 349 345 340 338 341 349 350 349 354
189 191 190 195 198 196 197 199 205 211 217 213 207 204 201 194 187 188 191 197 202 199 208 250 315 342 358 353 346 340 325 325 325 333 342 337 330 329 326 329 335 341 348
196 198 200 198 198 202 203 203 203 210 212 216 214 207 202 194 190 194 203 211 209 210 221 276 307 344 353 344 349 348 341 342 341 341 348 356 5 3 8 5 360 2 4
210 206 204 206 202 202 208 209 214 216 212 213 208 206 205 198 197 201 211 222 225 230 234 280 317 350 353 340 355 360 344 337 347 359 16 35 29 21 16 10 4 357 1
215 213 210 208 207 204 209 215 215 213 217 214 217 211 206 200 201 209 217 225 221 226 239 286 320 330 348 346 354 357 339 323 325 326 335 334 338 342 337 342 334 311 311
220 219 216 212 211 209 209 208 211 212 212 212 207 208 206 201 203 208 217 215 211 218 236 279 310 309 332 338 345 355 339 339 340 338 332 322 311 320 322 317 315 309 309
223 222 221 218 215 213 211 210 210 213 214 212 212 209 206 208 210 215 216 209 214 227 238 265 280 287 307 314 314 330 331 329 333 322 318 325 309 315 315 311 310 304 303
226 225 222 221 218 216 215 214 214 214 218 220 216 214 212 215 217 222 223 219 220 229 236 260 278 280 294 310 291 305 315 316 317 316 314 317 322 323 327 332 321 321 319
227 229 226 223 221 218 219 218 218 220 219 218 213 215 215 218 221 223 222 221 227 236 240 253 269 279 291 297 302 297 298 303 304 308 307 314 317 321 325 325 324 308 297